TIME,DELAY(SENSOR),PRES,T(CTD),SAL,OXYGEN,RAWTEMP,T(OPTODE),TCPHASE,FLUOR,BETA(BETA700),BETA(BETA412),BETA(BETA440),CDOM,C(CSC),ED(ED411.90),ED(ED443.80),ED(ED489.40),ED(ED554.70),LU(LU412.20),LU(LU443.80),LU(LU489.40),LU(LU555.00),COMP,TILTX,TILTX(TILTY),CHECK
1348499821,5804,496.6300048828125000,17.4041996002197270,36.4431991577148440,227.7471923828125000,175.1661071777343800,17.3971405029296880,31.3598308563232420,51,100,96,76,60,13225,2146955894,2147515748,2147267520,2147465115,2147085760,2146951542,2147659044,2147119497,2309,-2,8,26375
1348499934,5806,485.5199890136719000,17.4843006134033200,36.4589996337890600,229.1934967041015600,172.4604034423828000,17.4787693023681640,31.2503108978271500,50,102,95,77,60,13226,2146954825,2147514386,2147264621,2147465837,2147088740,2146954742,2147655332,2147120064,1729,-1,8,45180
1348500044,5805,474.6199951171875000,17.5596008300781250,36.4734992980957000,230.4326019287109400,169.8538970947265600,17.5574207305908200,31.1536998748779300,50,103,96,76,60,13226,2146956882,2147512000,2147266194,2147463954,2147086747,2146958409,2147656914,2147122386,1284,-1,8,63362
1348500154,5805,463.7000122070312500,17.6278991699218750,36.4878997802734400,232.3365020751953000,167.4812011718750000,17.6290206909179700,31.0278396606445300,50,100,97,77,59,13225,2146955876,2147513289,2147264722,2147463698,2147088822,2146960822,2147652315,2147118738,882,-1,8,44561
1348500266,5805,452.5700073242187500,17.7005996704101560,36.5026016235351560,234.2882995605468800,165.2364044189453000,17.6967697143554700,30.9022998809814450,50,100,97,77,59,13227,2146954569,2147511872,2147266806,2147467126,2147086025,2146955264,2147652077,2147122349,205,-1,8,54420
1348500376,5804,441.7399902343750000,17.7500000000000000,36.5101013183593750,234.7350006103515600,163.4340972900390600,17.7511692047119140,30.8565292358398440,51,100,96,75,59,13225,2146955684,2147513819,2147263826,2147464795,2147087936,2146962477,2147654354,2147126043,3347,-1,8,16184
1348500486,5803,430.9200134277344000,17.8271007537841800,36.5250015258789060,235.3894958496093800,160.8941955566406200,17.8278408050537100,30.7907009124755860,51,100,96,76,59,13227,2146952100,2147516123,2147262564,2147463085,2147087716,2146953453,2147652864,2147128832,2931,-1,9,56813
1348500598,5805,420.0899963378906000,17.8878993988037100,36.5332984924316400,235.7799072265625000,159.0316925048828000,17.8840694427490230,30.7469005584716800,50,102,96,76,60,13225,2146953490,2147514340,2147266395,2147464320,2147083392,2146959661,2147648310,2147124598,2593,-2,8,8685
1348500708,5805,409.5100097656250000,17.9340000152587900,36.5415000915527340,236.0883941650390600,157.4470062255859400,17.9319190979003900,30.7109603881835940,50,100,96,76,60,13226,2146952941,2147511689,2147264128,2147464630,2147087195,2146959232,2147654985,2147124452,2439,-2,9,20208
1348500829,5807,397.9700012207031000,17.9964008331298830,36.5514984130859400,236.4360961914062500,155.5393066406250000,17.9895305633544920,30.6688194274902340,50,101,95,77,59,13223,2146955410,2147513206,2147265673,2147463744,2147090340,2146957001,2147653942,2147126674,1788,-1,8,105
1348500941,5803,387.6300048828125000,18.0282993316650400,36.5564002990722660,237.3078002929687500,154.3737030029297000,18.0247306823730470,30.6117191314697270,51,100,97,77,60,13224,2146953344,2147512905,2147263588,2147461933,2147085787,2146959286,2147651803,2147125357,1253,-1,8,57488
1348501062,5802,376.7300109863281000,18.0764999389648440,36.5620002746582000,237.0991058349609400,152.7480010986328000,18.0738296508789060,30.5997791290283200,51,101,96,78,59,13222,2146953728,2147510756,2147263908,2147464813,2147089252,2146955529,2147653056,2147124626,1056,-1,8,21254
1348501197,5806,365.0299987792969000,18.1434001922607420,36.5690994262695300,236.1956939697265600,150.5494995117187500,18.1402397155761720,30.6136894226074220,50,101,96,76,59,13223,2146953490,2147513426,2147266212,2147461421,2147087040,2146961307,2147652196,2147126756,394,-1,8,39103
1348501318,5806,354.7900085449219000,18.1830005645751950,36.5741996765136700,235.5717010498047000,149.1837005615234400,18.1814994812011720,30.6253204345703120,50,102,95,76,59,13223,2146951094,2147514797,2147265078,2147461046,2147088457,2146960923,2147659401,2147122861,2850,-1,8,37629
1348501450,5805,343.8900146484375000,18.2378005981445300,36.5794982910156250,234.7928009033203000,147.4889984130859400,18.2327003479003900,30.6401100158691400,50,101,95,79,60,13224,2146953682,2147518025,2147262180,2147461037,2147088146,2146963200,2147653961,2147123684,2401,-2,9,17461
1348501595,5806,332.1099853515625000,18.2943992614746100,36.5852012634277340,234.1396026611328000,145.5438995361328000,18.2914791107177730,30.6458396911621100,50,103,96,77,59,13225,2146953426,2147510902,2147265764,2147457709,2147085074,2146961316,2147655433,2147124242,1778,-1,8,9254
1348501727,5806,321.6099853515625000,18.3568000793457030,36.5891990661621100,233.0623931884765600,143.4613037109375000,18.3544197082519530,30.6700992584228500,50,103,95,78,60,13224,2146959524,2147514742,2147265810,2147458294,2147086902,2146964708,2147654912,2147123337,1515,-1,9,54738
1348501871,5803,308.9700012207031000,18.4365997314453120,36.5965995788574200,231.3766937255859400,140.8041992187500000,18.4347305297851560,30.7169303894042970,50,101,95,77,60,13222,2146955986,2147513892,2147265947,2147459986,2147085248,2146960320,2147651081,2147126683,1123,-1,8,49517
1348501981,5807,297.9200134277344000,18.5279006958007800,36.6007995605468750,229.8984069824218800,137.8175964355468800,18.5250301361084000,30.7495002746582030,51,101,95,76,59,13219,2146954669,2147515931,2147262875,2147455369,2147080740,2146962377,2147653677,2147123858,375,-1,8,31546
1348502091,5807,286.9400024414062500,18.6394004821777340,36.6068992614746100,228.2442932128906200,133.7637023925781200,18.6476192474365230,30.7772407531738280,51,104,95,76,59,13221,2146955309,2147514514,2147264850,2147457517,2147076361,2146959853,2147655570,2147122660,17,-2,8,21003
1348502203,5806,275.7500000000000000,18.7830009460449220,36.6081008911132800,227.4429931640625000,129.5236968994140600,18.7758903503417970,30.7605800628662100,50,101,95,77,60,13221,2146954230,2147513545,2147265206,2147454738,2147081846,2146968073,2147655506,2147125458,3101,-1,8,8481
1348502313,5804,264.6600036621094000,18.8649997711181640,36.5989990234375000,230.6264953613281200,126.5504989624023400,18.8658599853515620,30.5642204284667970,50,101,97,76,60,13220,2146954569,2147514148,2147265362,2147458825,2147074349,2146960621,2147654674,2147122468,3066,-1,8,23380
1348502423,5807,253.6499938964843800,18.9612007141113280,36.5951004028320300,232.7315063476562500,123.5419006347656200,18.9569206237792970,30.4219703674316400,51,102,96,76,58,13219,2146952640,2147510665,2147263908,2147457499,2147077156,2146963273,2147655753,2147121737,2911,-1,8,2417
1348502541,5804,243.3999938964843800,19.0827999114990230,36.5951004028320300,235.4347991943359400,119.5749969482421900,19.0770301818847660,30.2397899627685550,51,101,95,76,58,13222,2146952850,2147514276,2147265106,2147455908,2147082971,2146968320,2147659556,2147125010,3509,-2,9,34224
1348502695,5806,232.6600036621093800,19.1509990692138670,36.5830001831054700,241.5377960205078000,117.3374023437500000,19.1448001861572270,29.9242897033691400,51,100,96,77,58,13220,2146956278,2147511094,2147262445,2147455817,2147077988,2146970706,2147664338,2147125312,2864,-2,9,59881
1348502847,5803,221.1699981689453000,19.2294006347656250,36.5830001831054700,246.8520965576172000,114.7984008789062500,19.2217102050781250,29.6491508483886720,51,102,96,76,59,13222,2146952036,2147514587,2147262701,2147453494,2147081609,2146975881,2147672118,2147125577,2146,-2,8,21987
1348502968,5804,210.2899932861328000,19.2549991607666000,36.5741996765136700,249.5372009277343800,113.7760009765625000,19.2526893615722660,29.5159893035888670,53,103,96,76,58,13219,2146952658,2147516772,2147266669,2147454546,2147086025,2146987446,2147679670,2147126372,2081,-1,9,38985
1348503092,5807,199.3600006103515600,19.3220996856689450,36.5788002014160160,251.0867004394531200,111.6677017211914000,19.3165702819824220,29.4202899932861330,56,104,96,76,58,13216,2146952658,2147514468,2147265033,2147455030,2147085065,2146990582,2147694070,2147127862,1376,-1,9,59527
1348503147,5804,194.5399932861328000,19.3313999176025400,36.5775985717773440,251.1905975341797000,111.1820983886718800,19.3312892913818360,29.4095001220703120,58,104,95,77,58,13211,2146954596,2147514816,2147266468,2147452434,2147086802,2146992621,2147701650,2147127963,1138,-1,9,32376
1348503202,5805,189.6499938964843800,19.3530006408691400,36.5765991210937500,250.9721984863281200,110.4085998535156200,19.3547306060791000,29.4090900421142580,61,106,96,77,58,13211,2146952338,2147516534,2147264192,2147452864,2147092425,2146999798,2147713344,2147127469,611,-1,8,58189
1348503257,5805,184.7899932861328000,19.3810005187988280,36.5802001953125000,250.8244018554687500,109.6899032592773400,19.3765201568603500,29.4064598083496100,65,104,96,76,58,13204,2146951917,2147512420,2147266002,2147451492,2147087469,2147009682,2147728310,2147129472,249,-2,8,26892
1348503312,5809,179.8399963378906200,19.3994007110595700,36.5806999206543000,250.7646026611328000,109.0417022705078100,19.3961696624755860,29.4006004333496100,68,106,96,77,57,13208,2146950290,2147514294,2147261622,2147455158,2147090788,2147016941,2147743259,2147130688,147,-1,9,63655
1348503367,5807,174.8600006103515600,19.4272003173828120,36.5806999206543000,250.4319000244140600,107.9553985595703100,19.4290904998779300,29.4013099670410160,72,108,96,78,58,13200,2146951378,2147514953,2147265764,2147455314,2147093686,2147027858,2147758061,2147129005,17,-1,8,28009
1348503442,5807,168.2899932861328000,19.4692001342773440,36.5792999267578100,250.9676055908203000,106.6678009033203100,19.4681396484375000,29.3610095977783200,79,110,97,76,58,13199,2146951204,2147514486,2147268553,2147452260,2147103908,2147046482,2147788470,2147132032,183,-1,9,44333
1348503497,5808,163.8300018310547000,19.5168991088867200,36.5833015441894500,251.3930053710937500,105.2421035766601600,19.5113601684570300,29.3241004943847660,80,109,97,78,58,13195,2146954614,2147516425,2147267629,2147452004,2147101101,2147058230,2147809691,2147137353,22,-1,8,36795
1348503552,5804,159.4100036621093800,19.5771999359130860,36.5904998779296900,251.5608062744140600,103.1404037475586000,19.5751094818115230,29.2895107269287100,85,111,97,78,59,13190,2146955556,2147516736,2147269814,2147451776,2147107209,2147077650,2147828452,2147136000,3380,-2,9,32636
1348503607,5806,155.0899963378906200,19.6303997039794920,36.5942993164062500,251.8990020751953000,100.9680023193359400,19.6410102844238280,29.2468700408935550,85,112,98,78,59,13187,2146956059,2147518774,2147271104,2147452187,2147110902,2147093513,2147853056,2147139730,3162,-2,9,58370
1348503662,5806,150.8500061035156200,19.7089996337890620,36.6012992858886700,252.3923950195312500,98.6771163940429700,19.7105197906494140,29.1960792541503900,90,113,97,77,59,13184,2146956196,2147517449,2147269275,2147450221,2147119716,2147112192,2147893833,2147139154,3004,-2,9,6672
1348503717,5807,146.7100067138672000,19.8005008697509770,36.6054000854492200,253.3180999755859400,95.6992568969726600,19.8008995056152340,29.1176795959472660,91,112,96,78,59,13181,2146956059,2147515190,2147276534,2147451401,2147129408,2147145005,2147932781,2147143744,3093,-1,9,39449
1348503795,5806,141.5000000000000000,19.9466991424560550,36.6146011352539060,258.2575073242187500,91.0626602172851600,19.9416809082031250,28.8467502593994140,88,111,98,78,60,13189,2146954020,2147519030,2147276086,2147453851,2147141083,2147188233,2147992182,2147150939,3504,-1,9,64772
1348503872,5804,137.3999938964843800,20.0606994628906250,36.6166992187500000,259.1164855957031000,87.4631271362304700,20.0510292053222660,28.7648200988769530,95,111,98,78,58,13176,2146955008,2147522267,2147280320,2147450349,2147156754,2147228333,2148049197,2147153234,261,-1,8,40288
1348503949,5805,133.5700073242187500,20.1679000854492200,36.6324005126953100,258.2709045410156000,83.9499588012695300,20.1578006744384770,28.7560691833496100,98,112,98,78,59,13178,2146957659,2147523364,2147282779,2147449755,2147176868,2147286793,2148112768,2147158857,464,-1,8,32881
1348504026,5807,129.6900024414062500,20.2544002532959000,36.6446990966796900,254.6230010986328000,80.8168869018554700,20.2530498504638670,28.8716602325439450,102,110,97,78,59,13178,2146958646,2147526217,2147284141,2147450825,2147205147,2147356169,2148194130,2147164489,827,-1,9,61082
1348504116,5805,125.3199996948242200,20.3008995056152340,36.6347007751464840,259.2746887207031000,79.0251007080078100,20.3075504302978500,28.6514701843261720,90,110,97,79,58,13172,2146956955,2147530715,2147290468,2147449947,2147243053,2147436928,2148302628,2147173595,865,-1,9,62233
1348504193,5805,121.6900024414062500,20.4183998107910160,36.6333999633789060,263.9484863281250000,75.7252426147461000,20.4079303741455080,28.4158191680908200,96,113,99,78,58,13174,2146960905,2147535524,2147296137,2147445202,2147284178,2147527158,2148408265,2147182290,621,-2,9,27195
1348504281,5808,117.8199996948242200,20.6544990539550780,36.6618995666503900,261.6418151855469000,68.2155227661132800,20.6365509033203120,28.4166698455810550,108,116,100,78,58,13156,2146960594,2147537782,2147306523,2147448658,2147342025,2147652032,2148545801,2147193618,811,-1,9,48419
1348504383,5803,113.8700027465820300,20.7469005584716800,36.6631011962890600,259.6668090820312500,65.1863021850586000,20.7288303375244140,28.4608192443847660,105,115,99,80,59,13152,2146964004,2147540086,2147312054,2147448950,2147415689,2147789238,2148700982,2147207222,1091,-1,9,22625
1348504493,5804,110.1399993896484400,20.8775997161865230,36.6722984313964840,255.9727020263672000,60.6858215332031250,20.8659992218017580,28.5598106384277340,113,116,99,80,59,13149,2146970614,2147547620,2147313773,2147448292,2147486208,2147920265,2148835236,2147221842,1015,-1,9,4717
1348504647,5806,106.5699996948242200,21.0578002929687500,36.6731986999511700,257.7018127441406000,54.8866500854492200,21.0428905487060550,28.4137306213378900,113,119,99,80,58,13143,2146970761,2147550180,2147317449,2147446198,2147536356,2147967808,2148859364,2147224064,699,-2,9,16085
1348504832,5808,101.8600006103515600,21.3773002624511720,36.6870002746582000,270.4057922363281000,44.1168899536132800,21.3717708587646500,27.7616405487060550,94,135,101,80,56,13135,2146977545,2147556946,2147325979,2147450816,2147678857,2148154349,2149004480,2147242486,623,-2,9,35615
1348504920,5805,99.0000000000000000,21.5963001251220700,36.6814002990722660,275.0598144531250000,37.7618598937988300,21.5660896301269530,27.5011405944824220,93,122,101,80,56,13126,2146985801,2147568512,2147333842,2147449408,2147816484,2148364160,2149189568,2147258971,136,-2,9,15910
1348504986,5805,97.0699996948242200,21.7826995849609380,36.6978988647460940,276.0859985351562500,32.0195388793945300,21.7418403625488280,27.3910408020019530,98,122,101,80,57,13129,2146990555,2147574592,2147341138,2147447040,2147922669,2148527369,2149337453,2147269184,3481,-1,9,29629
1348505064,5803,94.7699966430664000,21.9340000152587900,36.7174987792968750,277.0629882812500000,26.2124099731445300,21.9197406768798830,27.2826309204101560,89,121,101,79,56,13134,2146999469,2147588333,2147353097,2147448393,2148116928,2148821238,2149609782,2147299026,3040,-2,9,29398
1348505119,5807,92.5899963378906200,22.0081005096435550,36.7238006591796900,277.7372131347656000,23.7739696502685550,21.9944992065429700,27.2270393371582030,87,121,101,81,55,13131,2147007862,2147601764,2147370358,2147445915,2148325083,2149128256,2149883163,2147320530,3070,-2,9,16298
1348505174,5803,90.5500030517578100,22.1326007843017580,36.7304992675781250,277.6871948242187500,19.4529705047607420,22.1270408630371100,27.1763496398925780,85,121,101,81,55,13134,2147019081,2147613476,2147383222,2147444269,2148555730,2149457344,2150174784,2147348141,2819,-2,9,65528
1348505229,5804,88.7500000000000000,22.3160991668701170,36.7421989440918000,277.8890991210937500,14.1442604064941400,22.2900009155273440,27.1040897369384770,88,121,103,81,56,13128,2147027977,2147625499,2147397622,2147444205,2148781650,2149777417,2150459062,2147369819,2878,-2,9,20436
1348505284,5805,87.4700012207031200,22.4358997344970700,36.7461013793945300,278.7435913085937500,10.2993602752685550,22.4081306457519530,27.0249404907226560,88,121,101,81,55,13128,2147035309,2147638034,2147407963,2147445888,2148976384,2150053677,2150696713,2147389083,2739,-2,9,9056
1348505339,5804,86.6399993896484400,22.5475997924804700,36.7480010986328100,278.4950866699219000,6.5943088531494140,22.5220394134521500,26.9894409179687500,87,123,99,81,55,13129,2147041426,2147645933,2147411538,2147447789,2149119744,2150259401,2150878107,2147406381,2574,-2,9,63223
1348505461,5804,84.1699981689453100,22.6961002349853500,36.7223014831543000,276.6672973632812500,0.9703963994979858,22.6950893402099600,26.9908103942871100,84,127,102,80,57,13122,2147070418,2147679460,2147448731,2147445266,2149722102,2151088493,2151599606,2147471881,2938,-1,9,672
1348505527,5804,82.3000030517578100,22.9654998779296880,36.6500015258789060,277.7540893554687500,-6.6364021301269530,22.9294300079345700,26.8575706481933600,83,126,104,81,55,13123,2147086692,2147699053,2147473133,2147446811,2150121673,2151631149,2152074176,2147512237,3156,-2,9,16223
1348505727,5803,80.1900024414062500,23.2367992401123050,36.6838989257812500,279.4428100585937500,-16.0027408599853500,23.2184600830078120,26.6810302734375000,84,124,102,81,55,13117,2147109924,2147724589,2147492708,2147445330,2150641188,2152278765,2152595200,2147561472,2598,-1,9,11969
1348505793,5804,78.0599975585937500,23.4568004608154300,36.7136993408203100,278.9064025878906000,-23.0403995513916000,23.4359798431396500,26.6166801452636720,83,126,100,81,55,13122,2147131382,2147746898,2147517074,2147444041,2151089627,2152822025,2153022592,2147601764,2273,-2,9,54815
1348505859,5807,75.9700012207031200,23.6781997680664060,36.7141990661621100,278.7204895019531000,-29.6277294158935550,23.6398601531982420,26.5446891784667970,82,125,101,81,54,13124,2147152237,2147770989,2147536292,2147447597,2151551369,2153357376,2153453421,2147644315,2652,-2,9,62799
1348505925,5807,74.5199966430664000,23.7203998565673830,36.6739997863769500,279.6484069824219000,-31.2807502746582030,23.6910705566406250,26.4900608062744140,83,122,101,82,54,13131,2147162230,2147782290,2147549513,2147449014,2151787510,2153643602,2153671222,2147665307,2589,-1,9,45847
1348506070,5808,72.1800003051757800,23.8801002502441400,36.6213989257812500,279.2822875976562500,-36.8303108215332000,23.8631095886230470,26.4374408721923830,84,124,102,80,52,13123,2147185883,2147810989,2147574006,2147446326,2152437202,2154385664,2154229805,2147724489,1813,-2,9,52691
1348506147,5806,70.4599990844726600,24.0921993255615230,36.5887985229492200,273.9460144042969000,-42.8385696411132800,24.0496006011962900,26.5669803619384770,87,122,101,81,55,13124,2147204461,2147828498,2147593801,2147447707,2152899858,2154927835,2154683154,2147772489,2274,-2,9,60524
1348506358,5806,68.1999969482421900,24.1994991302490230,36.5843009948730500,250.9145050048828000,-47.3602981567382800,24.1901206970214840,27.4365196228027340,94,121,100,80,57,13117,2147224036,2147853385,2147624475,2147445074,2153484114,2155633417,2155256987,2147843172,3279,-1,9,9557
1348506424,5803,66.1100006103515600,24.3218002319335940,36.5329017639160160,248.2781982421875000,-50.9442901611328100,24.3015899658203120,27.5047798156738280,93,124,99,81,57,13117,2147240530,2147867830,2147640886,2147453138,2153916781,2156130294,2155679232,2147904886,457,-1,9,18
1348506501,5805,64.4700012207031200,24.5368995666503900,36.4990005493164060,248.3795013427734400,-57.7239799499511700,24.5127105712890620,27.4177608489990230,93,125,99,80,56,13114,2147250614,2147880594,2147647396,2147450688,2154165961,2156384429,2155876123,2147935387,597,-2,9,51279
1348506700,5805,62.4599990844726560,24.9078006744384770,36.4589996337890600,245.6685943603515600,-69.5993576049804700,24.8833007812500000,27.3888893127441400,93,125,100,82,57,13115,2147260562,2147886902,2147653568,2147450596,2154277540,2156386788,2155830573,2147951378,1350,-2,9,22962
1348507010,5803,59.9099998474121100,25.1259994506835940,36.4175987243652340,249.6434936523437500,-77.0979766845703100,25.1178493499755860,27.1282806396484380,88,123,102,81,55,13111,2147300269,2147919012,2147675894,2147451702,2154957302,2156986139,2156181275,2148009444,2317,-1,9,30146
1348507076,5804,58.5200004577636700,25.4239997863769530,36.3925018310546900,249.8824005126953000,-84.8975372314453100,25.3622608184814450,27.0235691070556640,90,123,99,81,54,13110,2147329316,2147946724,2147692544,2147450633,2155580873,2157626770,2156658057,2148067913,1221,-2,9,58582
1348507319,5806,56.0000000000000000,25.6690006256103500,36.3749008178710940,247.3636016845703000,-94.0550765991211000,25.6498508453369140,27.0190200805664060,87,126,102,81,55,13105,2147393965,2148008539,2147741467,2147453138,2157004516,2159088000,2157713334,2148207094,363,-2,9,36527
1348507471,5806,53.7000007629394500,25.9256000518798830,36.3599014282226560,245.7160949707031200,-102.3682022094726600,25.9115009307861330,26.9882793426513670,85,129,101,81,54,13101,2147450432,2148058770,2147786898,2147457197,2158146998,2160204992,2158471826,2148325915,104,-2,9,34752
1348507577,5804,52.6899986267089840,25.9407997131347660,36.3600006103515600,245.5227050781250000,-103.1336975097656200,25.9356193542480470,26.9873409271240230,84,125,101,82,56,13096,2147492489,2148101440,2147826340,2147459364,2159089280,2161208128,2159234459,2148429833,3307,-2,9,31929
1348507634,5806,50.8300018310546900,25.9720993041992200,36.3596000671386700,245.1667022705078000,-104.5386962890625000,25.9799003601074220,26.9854907989501950,85,126,101,82,55,13097,2147571364,2148181174,2147887716,2147467748,2160768612,2162915008,2160483419,2148591945,2935,-2,9,2850
1348507703,5805,48.6500015258789060,26.4736003875732420,36.3176994323730500,243.6990051269531200,-117.9299011230468800,26.4028301239013670,26.8860893249511720,85,128,102,82,55,13091,2147672521,2148265846,2147958052,2147479497,2162790125,2164905005,2161874614,2148805229,2775,-2,9,31736
1348508273,5804,46.8199996948242200,27.3889999389648440,36.1981010437011700,236.4163055419922000,-147.9662017822265600,27.3572101593017580,26.8387508392334000,82,124,100,80,55,13102,2147849472,2148422747,2148076754,2147480969,2166133952,2168352512,2164207478,2149110061,214,-2,9,31369
1348508557,5804,44.6800003051757800,27.5209007263183600,36.1941986083984400,234.6806945800781200,-152.8762054443359400,27.5140094757080080,26.8559894561767580,77,122,99,82,54,13101,2148025408,2148576914,2148200749,2147497014,2169816512,2171959981,2166920420,2149474112,1693,-2,9,49971
1348508638,5804,42.7999992370605500,27.6107006072998050,36.1805000305175800,233.8002929687500000,-155.8377075195312500,27.6086902618408200,26.8591804504394530,76,118,98,80,55,13108,2148184713,2148715245,2148292452,2147505252,2173055433,2174712338,2168478765,2149747977,2143,-2,9,47495
1348508743,5807,40.7799987792968750,27.6005001068115230,36.1670989990234400,233.6775970458984400,-155.8157958984375000,27.6079902648925780,26.8649291992187500,73,119,100,81,53,13108,2148363620,2148871076,2148416100,2147523602,2176835693,2178270857,2170864548,2150113435,1774,-1,9,18651
1348508834,5805,38.4599990844726560,27.5998001098632800,36.1586990356445300,233.5742034912109400,-155.7200012207031200,27.6049194335937500,26.8707904815673830,72,119,99,79,53,13110,2148637833,2149100516,2148586038,2147552365,2183112795,2184051474,2174553197,2150694628,1510,-2,9,7640
1348508879,5806,36.4500007629394500,27.6096000671386720,36.1501998901367200,233.4517974853515600,-156.0507049560547000,27.6154994964599600,26.8721809387207030,70,119,100,81,55,13111,2148830893,2149265133,2148707392,2147579227,2187583488,2188109120,2177160292,2151172781,1260,-2,9,21310